| time (UTC) | temp F | wind direction | speed knots | gust knots | rain 1hr in | rain 24hr in | rain mn in | humidity % | barometer mb |
| 20260505153118 | 41 | 4 | 0.0 | 4.3 | 0.00 | 0.00 | 0.00 | 69 | 1011.2 |
| 20260505151519 | 41 | 4 | 0.0 | 5.2 | 0.00 | 0.00 | 0.00 | 70 | 1011.1 |
| 20260505150117 | 41 | 4 | 3.5 | 7.8 | 0.00 | 0.00 | 0.00 | 69 | 1011.0 |
| 20260505124532 | 41 | 4 | 1.7 | 4.3 | 0.00 | 0.00 | 0.00 | 73 | 1010.0 |
| 20260505123046 | 41 | 4 | 0.0 | 3.5 | 0.00 | 0.00 | 0.00 | 73 | 1009.7 |
| 20260505121533 | 40 | 4 | 1.7 | 3.5 | 0.00 | 0.00 | 0.00 | 71 | 1009.3 |
| 20260505120036 | 41 | 4 | 0.0 | 5.2 | 0.00 | 0.00 | 0.00 | 70 | 1008.9 |
| 20260505114530 | 41 | 4 | 2.6 | 4.3 | 0.00 | 0.00 | 0.00 | 70 | 1008.8 |
| 20260505113134 | 42 | 8 | 0.9 | 5.2 | 0.00 | 0.00 | 0.00 | 68 | 1008.6 |
| 20260505111601 | 42 | 4 | 4.3 | 7.8 | 0.00 | 0.00 | 0.00 | 68 | 1008.7 |
| 20260505101607 | 43 | 4 | 0.9 | 7.8 | 0.00 | 0.00 | 0.00 | 67 | 1008.8 |
| 20260505100034 | 43 | 4 | 3.5 | 7.0 | 0.00 | 0.00 | 0.00 | 68 | 1008.9 |
| 20260505094624 | 43 | 4 | 2.6 | 5.2 | 0.00 | 0.00 | 0.00 | 70 | 1009.0 |
| 20260505093048 | 43 | 4 | 0.0 | 0.0 | 0.00 | 0.00 | 0.00 | 68 | 1009.0 |
| 20260505091539 | 43 | 4 | 0.0 | 4.3 | 0.00 | 0.00 | 0.00 | 69 | 1008.7 |
| 20260505090127 | 43 | 4 | 0.0 | 0.0 | 0.00 | 0.00 | 0.00 | 71 | 1008.8 |
| 20260505084539 | 43 | 4 | 0.0 | 0.0 | 0.00 | 0.00 | 0.00 | 72 | 1008.9 |
| 20260505083001 | 43 | 4 | 0.0 | 0.0 | 0.00 | 0.00 | 0.00 | 71 | 1009.1 |
| 20260505081608 | 44 | 4 | 0.0 | 0.0 | 0.00 | 0.00 | 0.00 | 70 | 1009.1 |
| 20260505080004 | 44 | 4 | 0.0 | 0.0 | 0.00 | 0.00 | 0.00 | 69 | 1009.0 |
| 20260505074557 | 45 | 4 | 0.0 | 0.0 | 0.00 | 0.00 | 0.00 | 69 | 1008.8 |
| 20260505073015 | 46 | 4 | 0.0 | 0.0 | 0.00 | 0.00 | 0.00 | 66 | 1008.8 |
| 20260505071600 | 47 | 4 | 0.9 | 9.6 | 0.00 | 0.00 | 0.00 | 66 | 1008.5 |
| 20260505070022 | 47 | 4 | 0.9 | 7.8 | 0.00 | 0.00 | 0.00 | 64 | 1008.3 |
| 20260505064608 | 47 | 4 | 2.6 | 10.4 | 0.00 | 0.00 | 0.00 | 64 | 1008.4 |
| 20260505063033 | 47 | 8 | 3.5 | 13.0 | 0.00 | 0.00 | 0.00 | 64 | 1008.6 |
| 20260505061626 | 47 | 4 | 4.3 | 13.9 | 0.00 | 0.00 | 0.00 | 65 | 1008.5 |
| 20260505060053 | 47 | 4 | 5.2 | 12.2 | 0.00 | 0.00 | 0.00 | 65 | 1008.3 |
| 20260505054521 | 48 | 4 | 1.7 | 7.8 | 0.00 | 0.00 | 0.00 | 63 | 1008.2 |
| 20260505053112 | 48 | 4 | 1.7 | 5.2 | 0.00 | 0.00 | 0.00 | 62 | 1008.2 |
| 20260505051523 | 48 | 359 | 6.1 | 8.7 | 0.00 | 0.00 | 0.00 | 60 | 1008.1 |
| 20260505050130 | 49 | 4 | 3.5 | 7.8 | 0.00 | 0.00 | 0.00 | 57 | 1007.9 |
| 20260505041605 | 52 | 4 | 4.3 | 10.4 | 0.00 | 0.00 | 0.00 | 50 | 1007.5 |
| 20260505040010 | 52 | 4 | 10.4 | 19.1 | 0.00 | 0.00 | 0.00 | 51 | 1007.2 |
| 20260505034600 | 53 | 4 | 7.8 | 14.8 | 0.00 | 0.00 | 0.00 | 49 | 1007.3 |
| 20260505033045 | 54 | 4 | 4.3 | 12.2 | 0.00 | 0.00 | 0.00 | 45 | 1007.1 |
| 20260505031631 | 55 | 8 | 0.0 | 5.2 | 0.00 | 0.00 | 0.00 | 42 | 1006.6 |
| 20260505030053 | 56 | 4 | 3.5 | 9.6 | 0.00 | 0.00 | 0.00 | 41 | 1006.2 |
| 20260505024518 | 56 | 4 | 7.0 | 12.2 | 0.00 | 0.00 | 0.00 | 40 | 1006.0 |
| 20260505023104 | 57 | 359 | 4.3 | 8.7 | 0.00 | 0.00 | 0.00 | 38 | 1006.0 |
| 20260505021525 | 57 | 4 | 4.3 | 11.3 | 0.00 | 0.00 | 0.00 | 37 | 1005.8 |
| 20260505020110 | 58 | 4 | 7.8 | 14.8 | 0.00 | 0.00 | 0.00 | 36 | 1005.2 |
| 20260505014524 | 62 | 4 | 0.0 | 3.5 | 0.00 | 0.00 | 0.00 | 27 | 1004.7 |
| 20260505013122 | 62 | 4 | 1.7 | 4.3 | 0.00 | 0.00 | 0.00 | 27 | 1004.2 |
| 20260505011545 | 63 | 4 | 2.6 | 5.2 | 0.00 | 0.00 | 0.00 | 27 | 1004.0 |
| 20260505010134 | 63 | 4 | 1.7 | 7.0 | 0.00 | 0.00 | 0.00 | 26 | 1003.5 |
| 20260505004545 | 64 | 4 | 0.9 | 5.2 | 0.00 | 0.00 | 0.00 | 26 | 1003.6 |
| 20260505003004 | 64 | 4 | 0.9 | 7.8 | 0.00 | 0.00 | 0.00 | 26 | 1003.5 |
| 20260505001604 | 65 | 4 | 6.1 | 13.9 | 0.00 | 0.00 | 0.00 | 24 | 1003.7 |
| 20260505000004 | 65 | 4 | 1.7 | 9.6 | 0.00 | 0.00 | 0.00 | 24 | 1003.5 |
| 20260504234615 | 66 | 4 | 1.7 | 7.8 | 0.00 | 0.00 | 0.00 | 24 | 1003.6 |
| 20260504233020 | 66 | 4 | 0.0 | 2.6 | 0.00 | 0.00 | 0.00 | 25 | 1003.6 |
| 20260504231602 | 66 | 4 | 1.7 | 5.2 | 0.00 | 0.00 | 0.00 | 25 | 1003.6 |
| 20260504230018 | 66 | 4 | 0.9 | 10.4 | 0.00 | 0.00 | 0.00 | 26 | 1003.7 |
| 20260504224606 | 66 | 4 | 5.2 | 13.0 | 0.00 | 0.00 | 0.00 | 25 | 1003.6 |
| 20260504223004 | 66 | 4 | 1.7 | 13.0 | 0.00 | 0.00 | 0.00 | 27 | 1003.9 |
| 20260504221555 | 66 | 4 | 1.7 | 9.6 | 0.00 | 0.00 | 0.00 | 27 | 1004.0 |
| 20260504220012 | 66 | 4 | 2.6 | 8.7 | 0.00 | 0.00 | 0.00 | 27 | 1004.3 |
| 20260504214619 | 65 | 4 | 2.6 | 10.4 | 0.00 | 0.00 | 0.00 | 27 | 1004.4 |
| 20260504213053 | 65 | 4 | 2.6 | 14.8 | 0.00 | 0.00 | 0.00 | 27 | 1004.6 |
| 20260504211627 | 66 | 4 | 2.6 | 9.6 | 0.00 | 0.00 | 0.00 | 28 | 1004.9 |
| 20260504210040 | 65 | 4 | 3.5 | 10.4 | 0.00 | 0.00 | 0.00 | 28 | 1005.2 |
| 20260504204627 | 66 | 4 | 6.1 | 20.0 | 0.00 | 0.00 | 0.00 | 28 | 1005.6 |
| 20260504203105 | 66 | 4 | 6.1 | 15.6 | 0.00 | 0.00 | 0.00 | 26 | 1005.7 |
| 20260504201517 | 66 | 4 | 2.6 | 20.9 | 0.00 | 0.00 | 0.00 | 25 | 1005.8 |
| 20260504200052 | 67 | 4 | 9.6 | 20.0 | 0.00 | 0.00 | 0.00 | 24 | 1006.1 |
| 20260504194517 | 67 | 4 | 4.3 | 16.5 | 0.00 | 0.00 | 0.00 | 24 | 1005.9 |
| 20260504193111 | 67 | 4 | 6.1 | 18.2 | 0.00 | 0.00 | 0.00 | 24 | 1006.0 |
| 20260504191522 | 67 | 4 | 6.1 | 19.1 | 0.00 | 0.00 | 0.00 | 24 | 1006.0 |
| 20260504190120 | 67 | 4 | 6.1 | 21.7 | 0.00 | 0.00 | 0.00 | 25 | 1005.7 |
| 20260504184517 | 68 | 4 | 6.1 | 12.2 | 0.00 | 0.00 | 0.00 | 25 | 1005.9 |
| 20260504183105 | 67 | 4 | 6.1 | 19.1 | 0.00 | 0.00 | 0.00 | 25 | 1006.4 |
| 20260504181516 | 65 | 4 | 3.5 | 14.8 | 0.00 | 0.00 | 0.00 | 28 | 1006.3 |
| 20260504180105 | 65 | 4 | 5.2 | 13.9 | 0.00 | 0.00 | 0.00 | 28 | 1007.1 |
| 20260504174512 | 66 | 4 | 2.6 | 9.6 | 0.00 | 0.00 | 0.00 | 29 | 1007.2 |
| 20260504173057 | 64 | 4 | 2.6 | 12.2 | 0.00 | 0.00 | 0.00 | 30 | 1007.4 |
| 20260504171518 | 65 | 4 | 2.6 | 12.2 | 0.00 | 0.00 | 0.00 | 29 | 1007.7 |
| 20260504160109 | 64 | 4 | 2.6 | 13.0 | 0.00 | 0.00 | 0.00 | 30 | 1007.7 |